Вернуться в каталог

ATLAS CENTAUR R/B

АктивенLEO
NORAD 6155·ROCKET BODY·🇺🇸 United States

Запущен Aug 21, 1972 с Cape Canaveral Space Force Station

Loading…

Ближайшие Пролёты (ближайшие 24 часа)

TLE

СвежийSource: Space-Track

Эпоха: Sep 14, 2026, 09:06 UTC

1 06155U 72065B   26257.37980906  .00000645  00000-0  90312-4 0  9995
2 06155  35.0014 279.5953 0033237 159.8454 200.3566 14.78043682869194

Отслеживайте ATLAS CENTAUR R/B в реальном времени с AllMySat

Download on the App Store